Regional Weather Roundup
Issued by NWS Sterling, VA

Home | Current Version | Previous Version | Graphics & Text | Print | Product List | Glossary On
Versions: 1 2 3 4 5 6 7 8 9 10 11 12 13 14 15 16 17 18 19 20 21 22 23 24 25 26 27 28 29 30 31 32 33 34 35 36 37 38 39 40 41 42 43 44 45 46 47 48 49 50
000
ASUS41 KLWX 301610
RWRLWX

REGIONAL WEATHER ROUNDUP
NATIONAL WEATHER SERVICE BALTIMORE MD/WASHINGTON DC
1200 PM EDT SAT MAY 30 2015

Note: "FAIR" indicates few or no clouds below 12,000 feet
with no significant weather and/or obstructions to visibility.
 TC=TEMPERATURE CELSIUS

 * =Non NWS site. Station does not report precipitation (e.g. rain,
    snow, etc.), thunder, or fog.

DCZ001-MDZ009-015-VAZ040>042-051-053>054-301700-
WASHINGTON METRO

CITY           SKY/WX    TMP DP  RH WIND       PRES   REMARKS
WASHINGTON NAT MOSUNNY   86  70  58 S10G20    30.17F HX  90
DULLES         MOSUNNY   82  67  60 S12       30.16F
ANDREWS AFB    SUNNY     83  67  59 S15       30.17F
FT BELVOIR     SUNNY     83  67  57 S8        30.17F
QUANTICO       SUNNY     79  70  74 S8        30.18F
COLLEGE PARK*  SUNNY     84  63  48 S7        30.17S
LEESBURG*      MOSUNNY   86  68  54 S12G18    30.18S
MANASSAS*      SUNNY     82  66  57 S12G18    30.17F
GAITHERSBURG*  MOSUNNY   84  64  51 S8        30.21S

$$

MDZ006>007-011-014-301700-
BALTIMORE METRO

CITY           SKY/WX    TMP DP  RH WIND       PRES   REMARKS
BWI AIRPORT    PTSUNNY   84  64  50 S10G17    30.16F
MD SCIENCE CTR   N/A     85  63  47 MISG      30.16F
MARTIN STATE   MOSUNNY   81  73  78 SE15      30.19F
ANNAPOLIS      SUNNY     78  70  76 SE14      30.18S
FORT MEADE*    SUNNY     82  64  54 S13       30.19S

$$

MDZ012-015-019>023-301700-
MARYLAND EASTERN SHORE

CITY           SKY/WX    TMP DP  RH WIND       PRES   REMARKS
OCEAN CITY     SUNNY     76  66  71 S9        30.23F
SALISBURY      MOSUNNY   82  65  56 SW10      30.21F
BAY BRIDGE AP*   N/A    N/A N/A N/A S10G16    30.19S
CAMBRIDGE*     MOSUNNY   81  66  61 S10       30.20S
EASTON*        PTSUNNY   82  70  65 SW9G20    30.23S

$$

MDZ017>025-301700-
SOUTHERN MARYLAND

CITY           SKY/WX    TMP DP  RH WIND       PRES   REMARKS
PATUXENT RIVER MOSUNNY   80  69  69 SE12      30.19F
ST INIGOES       N/A     81  67  62 SE8       30.19F
LEONARDTOWN*   MOSUNNY   81  64  57 S7        30.21F

$$

MDZ003>005-301700-
NORTH CENTRAL MARYLAND

CITY           SKY/WX    TMP DP  RH WIND       PRES   REMARKS
FREDERICK*     MOSUNNY   81  70  69 S6        30.19F
HAGERSTOWN APT MOSUNNY   83  64  52 SW12      30.15F
WESTMINSTER*   MOSUNNY   82  64  54 S10       30.18S

$$

MDZ501>502-301700-
WESTERN MARYLAND

CITY           SKY/WX    TMP DP  RH WIND       PRES   REMARKS
OAKLAND*       CLOUDY    70  70 100 SW6       30.24F
CUMBERLAND*    CLOUDY    73  68  83 CALM      30.19F

$$

VAZ025>031-301700-
SHENANDOAH VALLEY

CITY           SKY/WX    TMP DP  RH WIND       PRES   REMARKS
WINCHESTER*    PTSUNNY   81  68  65 S5        30.17F
FRONT ROYAL*   FAIR      81  70  69 CALM      30.16F
LURAY*         PTSUNNY   86  64  48 SW5       30.17F
NEW MARKET*    PTSUNNY   80  67  64 CALM      30.15F
STAUNTON*      PTSUNNY   86  64  48 S9        30.20F
WAYNESBORO*    PTSUNNY   80  62  54 W3        30.21S

$$

WVZ021-048>050-054>055-301700-
EASTERN WEST VIRGINIA PANHANDLE

CITY           SKY/WX    TMP DP  RH WIND       PRES   REMARKS
MARTINSBURG    MOSUNNY   80  67  64 S9        30.16F
PETERSBURG*    PTSUNNY   81  66  60 CALM      30.16F

$$

VAZ036>039-050-301700-
CENTRAL FOOTHILLS

CITY           SKY/WX    TMP DP  RH WIND       PRES   REMARKS
CHARLOTTESVILL SUNNY     82  64  54 S12       30.18F
CULPEPER*      SUNNY     83  65  54 S7        30.17F
ORANGE*        SUNNY     84  64  51 SE6       30.19F
GORDONSVILLE*  FAIR      81  65  58 SW5       30.18S
WARRENTON*     FAIR      85  68  55 S10G16    30.17F

$$

VAZ055>057-301700-
NORTH AND CENTRAL PIEDMONT

CITY           SKY/WX    TMP DP  RH WIND       PRES   REMARKS
FREDERICKSBRG* SUNNY     87  69  54 S10       30.17F HX  90
STAFFORD*      SUNNY     82  66  59 S9        30.22F

$$

NCZ024-NYZ072-PAZ021-071-VAZ022-071-301700-
OTHER REGIONAL OBSERVATIONS

CITY           SKY/WX    TMP DP  RH WIND       PRES   REMARKS
NEW YORK CITY  PTSUNNY   81  65  58 VRB6      30.20F
PHILADELPHIA   MOSUNNY   82  67  60 SW13      30.18F
PITTSBURGH     PTSUNNY   80  64  58 SW12G20   30.11F
ROANOKE        MOSUNNY   80  62  54 S7        30.22F
RICHMOND       MOSUNNY   83  66  56 S8        30.20F
RALEIGH        PTSUNNY   80  68  66 W5        30.22F

$$

ANZ530>537-301700-
MARINE OBSERVATIONS

STATION/POSITION TIME  TEMP    WIND        PRES
                       AIR SEA DIR/SP/G
                 (UTC) (F)     (DEG/KT/KT) (MB)
THOMAS PT LIGHT  1600   74 72  170/ 18/ 19 1022.5F
BALT KEY BRIDGE  1500   79     160/  9/ 12 1021.5F
COVE POINT       1500   71     180/ 15/ 17 1023.3F
LEWISETTA        1500   78 76              1022.7F
SOLOMONS ISLAND  1500      74                N/A
PINEY POINT      1500          180/  6/  8   N/A

$$



USA.gov is the U.S. government's official web portal to all federal, state and local government web resources and services.